Regional Weather Roundup
Issued by NWS Wakefield, VA

Home | Current Version | Previous Version | Graphics & Text | Print | Product List | Glossary On
Versions: 1 2 3 4 5 6 7 8 9 10 11 12 13 14 15 16 17 18 19 20 21 22 23 24 25 26 27 28 29 30 31 32 33 34 35 36 37 38 39 40 41 42 43 44 45 46 47 48 49 50
763
ASUS41 KAKQ 232315
RWRAKQ

REGIONAL WEATHER ROUNDUP
NATIONAL WEATHER SERVICE WAKEFIELD VA
700 PM EDT MON APR 23 2018

Note: "fair" indicates few or no clouds below 12,000 feet with no
significant weather and/or obstructions to visibility. * = Denotes
station may not report precipitation (e.g., rain,snow,etc.),
thunder or fog.

VAZ042-051-052>054-056-240000-
NORTHERN VIRGINIA

CITY           SKY/WX    TMP DP  RH WIND       PRES   REMARKS
WASH NATIONAL  MOCLDY    63  39  41 SE15      30.37R
DULLES         CLOUDY    62  43  49 SE15G21   30.34S
FORT BELVOIR   NOT AVBL
QUANTICO       MOCLDY    62  42  47 SE20      30.37S
FREDERICKSBRG* FAIR      63  39  41 SE15G21   30.34S
STAFFORD*      FAIR      63  40  42 SE14G23   30.38F
WARRENTON      FAIR      64  38  39 E13       30.33S
CULPEPER*      FAIR      65  42  42 CALM      30.33R
MANASSAS*      FAIR      62  41  46 SE17G25   30.35S
LEESBURG*      FAIR      64  45  48 S17       30.34S
WINCHESTER     FAIR      61  43  51 SE12      30.33S
FRONT ROYAL*   CLOUDY    63  43  48 SE12      30.30S
LURAY*         MOCLDY    63  41  45 SE9G17    30.29F
$$

VAZ048-049-060>072-079>083-240000-
CENTRAL AND SOUTH CENTRAL VIRGINIA

CITY           SKY/WX    TMP DP  RH WIND       PRES   REMARKS
RICHMOND       CLOUDY    61  36  39 E12       30.34S
CHESTERFIELD*  FAIR      63  40  42 E9        30.32F
PETERSBURG*    FAIR      63  42  45 E9        30.31F
HANOVER        FAIR      62  35  36 E5        30.35F
TAPPAHANNOCK*  FAIR      60  36  41 E8        30.38S
QUINTON*       FAIR      60  36  41 E15G25    30.34F
CHARLOTTSVILLE FAIR      66  43  43 SE12      30.28F
GORDONSVILLE*  FAIR      64  44  47 E6        30.30S
ORANGE*        MOCLDY    63  41  45 CALM      30.31S
LOUISA*        FAIR      62  40  43 E12       30.36R
BUMPASS*       FAIR      61  35  38 SE10G18   30.33S
FARMVILLE*     CLOUDY    66  46  48 E8G17     30.26S
CREWE*         MOCLDY    64  46  52 E8G16     30.28S
FORT PICKETT*  FAIR      63  46  52 E15G21    30.28F
CHASE CITY*    CLOUDY    63  48  57 E9G22     30.24F
CLARKSVILLE*   FAIR      63  48  59 E10G16    30.23F
SOUTH HILL*    FAIR      63  50  62 CALM      30.31F
LAWRENCEVILLE* FAIR      63  46  54 E10       30.28S
EMPORIA*       FAIR      63  43  48 E13       30.30F
$$

VAZ088>098-240000-
SOUTHEAST VIRGINIA

CITY           SKY/WX    TMP DP  RH WIND       PRES   REMARKS
NORFOLK        FAIR      61  39  44 E13       30.35F
VIRGINIA BEACH CLOUDY    57  43  59 E17       30.35F
NORFOLK NAVAL  MOCLDY    61  39  44 E12       30.37F
WEST POINT*    FAIR      60  36  40 E12       30.38S
SALUDA*        FAIR      58  42  54 SE8       30.37F
NEWPORT NEWS   FAIR      59  42  53 SE15G21   30.36F
LANGLEY AFB    NOT AVBL
FORT EUSTIS    NOT AVBL
WILLIAMSBURG*  FAIR      63  39  42 E5G18     30.36F
HR EXEC AP*    NOT AVBL
FRANKLIN*      FAIR      63  41  45 SE14G20   30.33F
US460-WAKEFLD  FAIR      63  42  46 E9        30.33F
$$

VAZ020-022-025-037-045-240000-
WEST CENTRAL AND SOUTHWEST VIRGINIA

CITY           SKY/WX    TMP DP  RH WIND       PRES   REMARKS
STAUNTON*      PTSUNNY   61  43  52 SE5       30.29F
WAYNESBORO*    CLOUDY    60  45  56 E13       30.28S
HOT SPRINGS VA LGT RAIN  47  40  76 E8G18     30.28R
LYNCHBURG      LGT RAIN  62  45  53 E7        30.26S
DANVILLE       LGT RAIN  59  52  77 E6        30.23S
SOUTH BOSTON*  FAIR      64  46  53 E6        30.24S
MARTINSVILLE   RAIN      55  52  92 NE6       30.24F
ROANOKE        LGT RAIN  57  50  77 E3        30.27S
BLACKSBURG     RAIN      50  49  94 E6        30.28F
DUBLIN*        RAIN      52  51  95 E7        30.24F
MARION*        LGT RAIN  50  48  93 E17G23    30.20F
HILLSVILLE*    RAIN      49  48  95 E18G24    30.18F
RICHLANDS*     DRIZZLE   50  16  25 SE9G17    30.14S
WISE*          PTSUNNY   55  46  71 SE8G17    30.09R
ABINGDON*      CLOUDY    57  47  68 SE20G29   30.10F
$$

MDZ021>025-VAZ099-100-240000-
SOUTHERN MARYLAND AND THE DELMARVA PENINSULA

CITY           SKY/WX    TMP DP  RH WIND       PRES   REMARKS
PATUXENT RIVER MOCLDY    59  41  51 SE10      30.39S
BAY BRIDGE APT FAIR      63  39  42 S13       30.38S
LEONARDTOWN    FAIR      59  30  33 SE6       30.41S
DOVER          NOT AVBL
GEORGETOWN     FAIR      59  21  23 S10       30.42R
EASTON         MOCLDY    64  23  20 S13G18    30.43R
CAMBRIDGE      CLEAR     61  28  29 SE8G15    30.40S
SALISBURY      FAIR      58  27  30 SE7       30.41S
TANGIER        FAIR      59  45  58 SE9       30.39F
OCEAN CITY     FAIR      52  44  74 S3        30.42S
WALLOPS ISLAND FAIR      56  40  55 SE15      30.42R
ACCOMACK*      FAIR      57  41  54 SE8       30.39F
$$

NCZ012>017-030>032-240000-
NORTH CENTRAL AND EASTERN NORTH CAROLINA

CITY           SKY/WX    TMP DP  RH WIND       PRES   REMARKS
ROANOKE RAPIDS FAIR      63  48  59 E9G22     30.27F
RALEIGH        LGT RAIN  64  51  62 E15G24    30.20S
ELIZABETH CITY FAIR      61  47  59 E16G24    30.34F
AHOSKIE*       FAIR      62  44  51 E9        30.30F
EDENTON*       FAIR      63  50  61 E12G22    30.31F
CURRITUCK*     NOT AVBL
KILL DEVIL HLS FAIR      56  48  76 E7        30.33F
MANTEO         FAIR      58  48  69 E10       30.34F
CAPE HATTERAS  FAIR      63  51  65 E13       30.30F
TARBORO*       NOT AVBL
GOLDSBORO      MOCLDY    65  51  60 E15G28    30.19F
WASHINGTON     MOCLDY    64  48  56 E17       30.27F
GREENVILLE     FAIR      64  50  59 E13G22    30.26S
NEW BERN       FAIR      64  51  62 E10G24    30.25F
WILMINGTON     CLOUDY    64  55  72 E16G22    30.17F
$$

VAZ048-240000-
ELSEWHERE

CITY           SKY/WX    TMP DP  RH WIND       PRES   REMARKS
HARRISBURG PA  MOCLDY    61  40  45 SE10      30.33R
BALTIMORE      MOCLDY    63  43  48 S9G21     30.36S
ANNAPOLIS      FAIR      63  33  32 S14G25    30.38R
ANDREWS AFB    NOT AVBL
PHILADELPHIA   MOCLDY    63  26  24 S9G20     30.38F
HENDERSON NC   FAIR      62  44  53 SE12G23   30.23S
GREENSBORO     RAIN      57  56  96 E9        30.17F FOG
ROCKY MOUNT    FAIR      64  50  60 VRB7G18   30.24F
$$

VAZ100-240000-
MARINE

STATION/POSITION TIME  TEMP    WIND        PRES    WAVE   SWELL
                       AIR SEA DIR/SP/G            HT/PER HT/PER
                 (UTC) (F)     (DEG/KT/KT) (MB)    (FT/S) (FT/S)
BRANDYWINE LGT   2248          180/ 14/ 15   N/A
CAPE MAY NJ      2248   53 52  150/  9/ 13 1029.3F
LEWES DE         2248          170/  6/  8   N/A
15NM E FENWICK I 2250   50 49  170/  6/  8 1030.2F   1/13   2/13
OCEAN-CITY-INLET 2248   52 51  180/  5/  6 1030.6R
WACHAPREAGUE VA  2248   56 60  120/  9/ 12 1029.5F
THOMAS POINT MD  2300   57 53  190/ 21/ 22 1029.6
GOOSES REEF MD   2300   56     170/ 14/ 16 1029.4
COVE POINT MD    2248   56     180/ 15/ 17 1029.9S
SOLOMONS ISLAND  2248   57 54  150/ 13/ 15 1029.0S
BISHOPS HEAD MD  2248   58 61  140/ 11/ 15 1029.8S
PINEY POINT MD   2248          140/ 13/ 15   N/A
POTOMAC MD       2300   56 55  160/  6/  6 1030.4    1/ 2
CAMBRIDGE MD     2248   62 58              1030.2R
LEWISETTA VA     2248   60 57  150/ 13/ 16 1028.7F
RAPPAHANNOCK LGT 2248          110/ 15/ 19 1029.4F
STINGRAY PT      2300   56 55  140/ 14/ 16 1029.8    2/ 3
YORK RVR RNG VA  2248   57     130/ 18/ 20 1028.6F
YORKTOWN VA      2248   58 56  130/ 13/ 17 1027.9F
DOMINION TERM VA 2248   61     110/ 13/ 19 1028.0F
KIPTOPEKE VA     2248          120/ 12/ 17   N/A
CAPE HENRY VA    2248   56     100/ 18/ 20   N/A
WILLOUBY STN VA  2248   59     110/ 13/ 15 1027.9F
S CRANEY ISL VA  2248   62     120/ 13/ 17 1027.7F
CAPE HENRY BUOY  2300      52                N/A     3/ 5
1ST LANDING BUOY 2300   55 53  130/ 16/ 19 1028.0    2/ 3
64NM E OF VA BCH 2250   54 50   70/ 12/ 12 1029.2F   3/ 8   2/ 8
DUCK PIER NC     2248   56 54   80/ 16/ 19 1027.3F
44100 DUCK FRF   2245      51                N/A     4/ 5
44056 DUCK FRF   2300      54                N/A     3/ 6
OREGON INLET NC  2242   56 59   60/  7/ 11 1027.3F
HATTERAS NC      2248   64 62  110/ 11/ 15 1025.8F
DIAMOND SHLS NC  2300   67 73  110/ 19/ 27 1026.0
$$




USA.gov is the U.S. government's official web portal to all federal, state and local government web resources and services.